User: anonymous   Login
Location: Vancouver
(49.2500°N, 123.1330°W)
Time: 23:41:16
(UTC-08:00)
Language:

Cosmos 1939 Rocket - Orbit

View from above orbital plane
View from above orbital plane
View from above satellite
View from above satellite

Ground track
Ground track

The orbit data is extracted from the following two-line orbital elements,

1 19046U 88032B   17056.82325216  .00001030  00000-0  81688-4 0  9998
2 19046  97.5430 106.8697 0038800 347.2702  12.7540 15.02133292555924
Epoch (UTC): 25 February 2017 19:45:28
Eccentricity: 0.0038800
inclination: 97.5430°
perigee height: 533 km
apogee height: 587 km
right ascension of ascending node: 106.8697°
argument of perigee: 347.2702°
revolutions per day: 15.02133292
mean anomaly at epoch: 12.7540°
orbit number at epoch: 55592

The dashed part of the orbit path shows where the satellite is in the earth's shadow,  

DLR